Satellite: NOAA-17
Catalog number: 27453
Epoch time:      11355.46034938
Element set:     535
Inclination:      098.3585 deg
RA of node:       026.3582 deg
Eccentricity:    0.0011123
Arg of perigee:   324.8036 deg
Mean anomaly:     035.2412 deg
Mean motion:   14.24371720 rev/day
Decay rate:       2.25e-06 rev/day^2
Epoch rev:           49331
Checksum:              279

Satellite: NOAA-18
Catalog number: 28654
Epoch time:      11355.44859270
Element set:      10
Inclination:      099.0224 deg
RA of node:       307.2907 deg
Eccentricity:    0.0013684
Arg of perigee:   299.5922 deg
Mean anomaly:     060.3889 deg
Mean motion:   14.11576796 rev/day
Decay rate:        7.9e-07 rev/day^2
Epoch rev:           33934
Checksum:              333

Satellite: NOAA-19
Catalog number: 33591
Epoch time:      11355.70009702
Element set:     200
Inclination:      098.8470 deg
RA of node:       292.8724 deg
Eccentricity:    0.0014221
Arg of perigee:   162.7835 deg
Mean anomaly:     197.3821 deg
Mean motion:   14.11265935 rev/day
Decay rate:       -1.6e-07 rev/day^2
Epoch rev:           14783
Checksum:              295

/EX
SB KEPS @ AMSAT  $ORB11355.M
Orbital Elements  11355.MISC

HR AMSAT ORBITAL ELEMENTS FOR MANNED AND MISCELLANEOUS SATELLITES
FROM WA5QGD FORT WORTH,TX December 21, 2011
Send Subscribe/unsubscribe to KEPS at http://www.amsat.org/mailman/listinfo/kep
BID: ORB11355.M
TO ALL RADIO AMATEURS BT

Satellite: HUBBLE
Catalog number: 20580
Epoch time:      11355.08397458
Element set:     910
Inclination:      028.4703 deg
RA of node:       235.1646 deg
Eccentricity:    0.0003202
Arg of perigee:   306.8411 deg
Mean anomaly:     053.1934 deg
Mean motion:   15.02015669 rev/day
Decay rate:      1.881e-05 rev/day^2
Epoch rev:           98777
Checksum:              289

Satellite: ISS
Catalog number: 25544
Epoch time:      11355.91136867
Element set:     670
Inclination:      051.6441 deg
RA of node:       296.4760 deg
Eccentricity:    0.0024445
Arg of perigee:   190.7247 deg
Mean anomaly:     276.2995 deg
Mean motion:   15.58432251 rev/day
Decay rate:     2.1672e-04 rev/day^2
Epoch rev:           75021
Checksum:              309

Satellite: CO-58
Catalog number: 28895
Epoch time:      11354.31430120
Element set:    0053
Inclination:      097.9392 deg
RA of node:       223.2326 deg
Eccentricity:    0.0017645
Arg of perigee:   000.3419 deg
Mean anomaly:     359.7813 deg
Mean motion:   14.60398879 rev/day
Decay rate:       6.50e-06 rev/day^2
Epoch rev:           32740
Checksum:              308

Satellite: FALCON
Catalog number: 30776
Epoch time:      11354.96636313
Element set:    0248
Inclination:      035.4340 deg
RA of node:       290.3659 deg
Eccentricity:    0.0003051
Arg of perigee:   293.1361 deg
Mean anomaly:     066.8993 deg
Mean motion:   15.06201105 rev/day
Decay rate:      5.472e-05 rev/day^2
Epoch rev:           26320
Checksum:              276

Satellite: MAST
Catalog number: 31126
Epoch time:      11355.58319030
Element set:     338
Inclination:      097.8825 deg
RA of node:       012.0934 deg
Eccentricity:    0.0093553
Arg of perigee:   307.9261 deg
Mean anomaly:     051.3497 deg
Mean motion:   14.53972922 rev/day
Decay rate:       7.27e-06 rev/day^2
Epoch rev:           24831
Checksum:              298

Satellite: CAPE1
Catalog number: 31130
Epoch time:      11354.50126810
Element set:    0351
Inclination:      097.8871 deg
RA of node:       007.5975 deg
Eccentricity:    0.0101614
Arg of perigee:   323.2305 deg
Mean anomaly:     036.1958 deg
Mean motion:   14.52685504 rev/day
Decay rate:      1.052e-05 rev/day^2
Epoch rev:           24768
Checksum:              274

Satellite: COMPASS
Catalog number: 32787
Epoch time:      11355.75062495
Element set:     175
Inclination:      097.8282 deg
RA of node:       055.9080 deg
Eccentricity:    0.0014407
Arg of perigee:   286.2500 deg
Mean anomaly:     073.7133 deg
Mean motion:   14.83285100 rev/day
Decay rate:      2.853e-05 rev/day^2
Epoch rev:           19735
Checksum:              302

Satellite: AAUSAT2
Catalog number: 32788
Epoch time:      11354.81105155
Element set:     166
Inclination:      097.8286 deg
RA of node:       055.2801 deg
Eccentricity:    0.0014056
Arg of perigee:   291.6651 deg
Mean anomaly:     068.3071 deg
Mean motion:   14.83536305 rev/day
Decay rate:      2.770e-05 rev/day^2
Epoch rev:           19723
Checksum:              299

Satellite: DO-64
Catalog number: 32789
Epoch time:      11354.73918536
Element set:     181
Inclination:      097.8369 deg
RA of node:       056.6294 deg
Eccentricity:    0.0014091
Arg of perigee:   286.7139 deg
Mean anomaly:     073.2585 deg
Mean motion:   14.84532947 rev/day
Decay rate:      4.109e-05 rev/day^2
Epoch rev:           19724
Checksum:              353

Satellite: CO-66
Catalog number: 32791
Epoch time:      11354.66550122
Element set:    0170
Inclination:      097.8285 deg
RA of node:       054.7087 deg
Eccentricity:    0.0014758
Arg of perigee:   289.3402 deg
Mean anomaly:     070.6248 deg
Mean motion:   14.82821053 rev/day
Decay rate:      1.780e-05 rev/day^2
Epoch rev:           19713
Checksum:              313

